Location: Jackson Park
(37.2862°N, 79.9123°W)
Time: 14:05:27
(UTC+00:00)

Vanguard 1 Rocket - Pass Details

Date: 18 May 2026
Orbit: 656 x 4211 km, 34.3° (Epoch: 8 June)

Event Time Altitude Azimuth Distance (km) Brightness Sun altitude
Rises 02:48:59 0° 282° (WNW) 6,589 12.5 -23.5°
Reaches altitude 10° 02:53:28 10° 274° (W) 6,012 12.1 -24.0°
Maximum altitude 03:10:28 33° 219° (SW) 5,394 11.1 -25.9°
Enters shadow 03:22:39 23° 181° (S) 6,291 11.1 -27.2°
Drops below altitude 10° 03:31:36 10° 165° (SSE) 7,290 - -28.1°
Sets 03:38:04 0° 156° (SSE) 8,084 - -28.7°
